www.pogodaiklimat.ru

Погода и климат >> Архив погоды >> Норвегия >> Квитсёй


ПОГОДА в Квитсёй

  • Прогноз погоды в Квитсёй
  • Монитор погоды в Квитсёй

АРХИВ ПОГОДЫ в Квитсёй

Время (UTC), дата Ветер
(напр.,м/с)
 
Видим.   Явления Облачность Т
(С)
Тd
(С)
f
(%)
Тe
(С)
Тes
(С)
Комфортность P
(гПа)
Po
(гПа)
Тmin
(С)
Tmax
(С)
R
(мм)
R24
(мм)
S
(см)
01 9.06 Ю 9-13
{14}
н/о н/о +11.6 +9 +9 1005.4 1002.7
02 9.06 Ю 9-12
{13}
н/о н/о +11.4 +9 +9 1005.7 1003.0
03 9.06 Ю 9-11
{12}
н/о н/о +11.3 +9 +9 1006.1 1003.4
04 9.06 Ю 8-10
{11}
н/о н/о +11.3 +9 +9 1006.6 1003.9
05 9.06 Ю 7-9
{9}
н/о н/о +11.3 +9 +9 1007.2 1004.5
06 9.06 Ю 7-9
{14}
н/о н/о +11.3 +9 +9 1007.8 1005.1 +11.2 +14.1
07 9.06 ЮЗ 7-9
{10}
н/о н/о +11.3 +9 +9 1008.7 1006.0
08 9.06 ЮЗ 8-10
{10}
н/о н/о +11.3 +9 +9 1009.7 1007.0
09 9.06 ЮЗ 9-13
{13}
н/о н/о +11.0 +8 +8 1010.8 1008.1
10 9.06 ЮЗ 8-11
{12}
н/о н/о +11.4 +9 +9 1011.8 1009.1
11 9.06 ЮЗ 9-13
{13}
н/о н/о +11.1 +8 +8 1012.4 1009.7
12 9.06 ЮЗ 10-13
{14}
н/о н/о +11.2 +8 +8 1013.2 1010.5
13 9.06 ЮЗ 10-14
{16}
н/о н/о +10.9 +8 +8 1014.2 1011.4
14 9.06 ЮЗ 10-13
{17}
н/о н/о +11.2 +8 +8 1015.0 1012.2
15 9.06 ЮЗ 11-14
{15}
н/о н/о +11.2 +8 +8 1015.7 1013.0
16 9.06 ЮЗ 9-12
{13}
н/о н/о +11.3 +9 +9 1016.2 1013.5
17 9.06 ЮЗ 9-13
{14}
н/о н/о +11.1 +8 +8 1016.9 1014.2
18 9.06 ЮЗ 9-12
{17}
н/о н/о +10.9 +8 +8 1017.4 1014.7 +10.9 +11.4
19 9.06 ЮЗ 7-12
{13}
н/о н/о +10.6 +8 +8 1017.9 1015.2
20 9.06 ЮЗ 6-9
{10}
н/о н/о +10.6 +8 +8 1018.4 1015.7
21 9.06 ЮЗ 7-8
{9}
н/о н/о +10.5 +8 +8 1018.9 1016.1
22 9.06 ЮЗ 6-8
{9}
н/о н/о +10.5 +8 +8 1019.2 1016.4
23 9.06 ЮЗ 6-8
{9}
н/о н/о +10.3 +8 +8 1019.5 1016.7
00 10.06 ЮЗ 5-7
{13}
н/о н/о +10.3 +8 +8 1019.5 1016.8
01 10.06 ЮЗ 4-5
{7}
н/о н/о +10.4 +9 +9 1019.6 1016.9
02 10.06 ЮЗ 3-4
{5}
н/о н/о +10.4 +9 +9 1019.6 1016.8
03 10.06 ЮЗ 2-4
{4}
н/о н/о +10.3 +10 +10 1019.5 1016.7
04 10.06 Ю 2-3
{3}
н/о н/о +10.3 +10 +10 1019.6 1016.9
05 10.06 Ю 3-4
{4}
н/о н/о +10.8 +10 +10 1019.7 1017.0
06 10.06 Ю 3-4
{7}
н/о н/о +11.4 +11 +11 1019.8 1017.1 +10.2 +11.4
07 10.06 ЮВ 4-5
{5}
н/о н/о +12.2 +11 +11 1020.0 1017.3
08 10.06 Ю 5-6
{7}
н/о н/о +12.5 +11 +11 1020.3 1017.6
09 10.06 Ю 5-7
{7}
н/о н/о +13.4 +12 +12 1020.4 1017.7
10 10.06 Ю 4-7
{8}
н/о н/о +13.5 +13 +13 1020.5 1017.8
11 10.06 Ю 6-7
{7}
н/о н/о +13.5 +12 +12 1020.7 1018.0
12 10.06 ЮЗ 5-6
{8}
н/о н/о +13.4 +12 +12 1020.6 1017.9
13 10.06 ЮЗ 6-7
{8}
н/о н/о +12.9 +11 +11 1020.9 1018.1
14 10.06 ЮЗ 4-7
{8}
н/о н/о +12.4 +11 +11 1020.7 1018.0
15 10.06 ЮЗ 5-6
{6}
н/о н/о +12.6 +11 +11 1020.7 1018.0
16 10.06 З 4-5
{6}
н/о н/о +12.3 +11 +11 1020.7 1018.0
17 10.06 З 3-5
{5}
н/о н/о +12.6 +12 +12 1020.6 1017.9
18 10.06 З 3-4
{8}
н/о н/о +12.2 +12 +12 1020.6 1017.9 +11.4 +14.1
19 10.06 З 3-4
{4}
н/о н/о +11.8 +11 +11 1020.7 1018.0
20 10.06 СЗ 4-5
{5}
н/о н/о +11.5 +10 +10 1020.9 1018.2
21 10.06 СЗ 4-5
{5}
н/о н/о +10.9 +10 +10 1021.2 1018.5
22 10.06 С 4-5
{5}
н/о н/о +10.5 +9 +9 1021.0 1018.3
23 10.06 С 5-6
{7}
н/о н/о +10.3 +8 +8 1020.9 1018.2
00 11.06 С 7-8
{8}
н/о н/о +10.1 +8 +8 1020.5 1017.8
01 11.06 С 7-8
{9}
н/о н/о +10.0 +7 +7 1020.2 1017.5
02 11.06 С 7-8
{8}
н/о н/о +9.8 +7 +7 1020.0 1017.2
03 11.06 С 6-8
{8}
н/о н/о +9.6 +7 +7 1019.9 1017.2
04 11.06 С 6-7
{7}
н/о н/о +9.6 +7 +7 1020.0 1017.3
05 11.06 С 5-6
{7}
н/о н/о +9.7 +8 +8 1020.1 1017.4
06 11.06 С 5-6
{9}
н/о н/о +10.4 +9 +9 1019.8 1017.1 +9.5 +12.3
07 11.06 С 5-6
{7}
н/о н/о +11.4 +10 +10 1019.7 1017.0
08 11.06 С 4-6
{6}
н/о н/о +12.7 +12 +12 1019.9 1017.2
09 11.06 С 4-5
{6}
н/о н/о +14.1 +10.5 79 +13 +13 1019.7 1017.0
10 11.06 С 5-6
{6}
н/о н/о +15.2 +10.6 74 +14 +14 1019.2 1016.5
11 11.06 С 5-6
{7}
н/о н/о +15.9 +10.9 72 +15 +15 1018.7 1016.0
12 11.06 СЗ 5-6
{7}
н/о н/о +16.3 +11.9 75 +15 +15 1018.4 1015.8
13 11.06 СЗ 4-5
{5}
н/о н/о +16.9 +11.6 71 +16 +16 1018.4 1015.7
14 11.06 СЗ 7-8
{8}
н/о н/о +17.1 +11.4 69 +16 +16 1018.0 1015.3
15 11.06 С 6-8
{8}
н/о н/о +16.3 +10.4 68 +15 +15 1018.1 1015.4
16 11.06 С 6-8
{8}
н/о н/о +15.7 +10.3 70 +14 +14 1017.8 1015.2
17 11.06 С 7-8
{10}
н/о н/о +15.8 +9.9 68 +14 +14 1017.7 1015.0
18 11.06 СВ 5-8
{10}
н/о н/о +16.5 +10.1 66 +16 +16 1017.6 1015.0 +10.4 +17.3
19 11.06 СВ 7-10
{10}
н/о н/о +17.5 +8.9 57 +17 +17 1017.4 1014.7
20 11.06 СВ 6-9
{10}
н/о н/о +17.2 +8.6 57 +16 +16 1017.4 1014.8
21 11.06 В 7-11
{11}
н/о н/о +17.0 +8.4 57 +16 +16 1017.6 1015.0
22 11.06 СВ 6-9
{9}
н/о н/о +16.1 +9.1 63 +15 +15 1017.6 1014.9
23 11.06 СВ 7-9
{10}
н/о н/о +15.0 +10.0 72 +13 +13 1017.7 1015.0
00 12.06 СВ 7-9
{11}
н/о н/о +14.4 +10.2 76 +12 +12 1017.4 1014.7
01 12.06 СВ 6-9
{10}
н/о н/о +14.1 +10.3 78 +12 +12 1017.2 1014.5
02 12.06 СВ 5-7
{8}
н/о н/о +14.7 +9.5 71 +13 +13 1017.6 1014.9
03 12.06 СВ 6-8
{8}
н/о н/о +14.2 +9.4 73 +12 +12 1017.9 1015.2
04 12.06 СВ 5-8
{11}
н/о н/о +13.9 +9.4 74 +12 +12 1017.8 1015.1
05 12.06 СВ 6-7
{8}
н/о н/о +12.8 +10.0 83 +10 +10 1017.8 1015.1
06 12.06 СВ 6-9
{11}
н/о н/о +13.1 +10.1 82 +11 +11 1017.2 1014.5 +12.5 +17.5
07 12.06 СВ 8-9
{10}
н/о н/о +13.4 +9.7 78 +11 +11 1017.3 1014.6
08 12.06 СВ 4-8
{9}
н/о н/о +13.5 +9.9 79 +12 +12 1017.9 1015.2
09 12.06 СВ 5-6
{7}
н/о н/о +13.5 +10.1 80 +12 +12 1017.9 1015.2
10 12.06 СВ 7-8
{8}
н/о н/о +13.8 +9.7 76 +11 +11 1017.2 1014.5
11 12.06 СВ 7-9
{9}
н/о н/о +14.4 +10.0 75 +12 +12 1017.0 1014.3
12 12.06 СВ 5-8
{10}
н/о н/о +14.7 +10.5 76 +13 +13 1016.4 1013.8
13 12.06 СВ 3-6
{8}
н/о н/о +15.4 +10.2 71 +15 +15 1016.3 1013.6
14 12.06 С 4-6
{6}
н/о н/о +14.9 +10.5 75 +14 +14 1015.6 1012.9
15 12.06 СЗ 3-5
{5}
н/о н/о +14.4 +10.6 78 +13 +13 1015.3 1012.6
16 12.06 С 5-6
{6}
н/о н/о +14.5 +10.7 78 +13 +13 1014.5 1011.8
17 12.06 СВ 4-6
{7}
н/о н/о +14.2 +11.0 81 +13 +13 1013.6 1010.9
18 12.06 СВ 2-4
{8}
н/о н/о +14.1 +11.1 82 +14 +14 1013.2 1010.5 +13.1 +16.4
19 12.06 -5
{5}
н/о н/о +13.4 +11.1 86 1012.4 1009.7
20 12.06 СВ 5-8
{8}
н/о н/о +13.6 +10.4 81 +12 +12 1012.0 1009.3
21 12.06 СВ 6-8
{8}
н/о н/о +13.4 +10.0 80 +11 +11 1011.7 1009.0
22 12.06 В 2-7
{7}
н/о н/о +12.8 +10.4 85 +12 +12 1011.1 1008.4
23 12.06 СВ 3-4
{4}
н/о н/о +12.1 +10.8 92 +10 +10 1009.9 1007.2
00 13.06 СВ 4-5
{8}
н/о н/о +11.7 +10.8 94 +9 +9 1008.7 1006.0
01 13.06 СВ 4-5
{8}
н/о н/о +12.0 +10.9 93 +10 +10 1007.6 1004.9
02 13.06 С 2-4
{4}
н/о н/о +12.0 +11.1 94 +11 +11 1006.8 1004.1
03 13.06 СВ 2-3
{4}
н/о н/о +11.7 +10.6 93 +10 +10 1006.1 1003.4
04 13.06 СВ 2-3
{3}
н/о н/о +11.5 +10.7 95 +10 +10 1005.8 1003.1
05 13.06 СВ 3-4
{4}
н/о н/о +11.7 +11.1 96 +10 +10 1005.4 1002.7
06 13.06 СВ 3-4
{8}
н/о н/о +11.5 +10.9 96 +10 +10 1005.2 1002.5 +11.4 +14.0
07 13.06 СВ 4-5
{5}
н/о н/о +11.9 +11.1 95 +10 +10 1004.9 1002.2
08 13.06 В 3-4
{4}
н/о н/о +12.1 +11.0 93 +10 +10 1005.1 1002.4
09 13.06 Ю 2-3
{3}
н/о н/о +12.4 +11.3 93 +11 +11 1005.6 1002.9
10 13.06 Ю 9-12
{14}
н/о н/о +13.3 +11.5 89 +10 +10 1005.8 1003.1
11 13.06 Ю 9-16
{16}
н/о н/о +13.0 +10.9 87 +10 +10 1006.8 1004.1
12 13.06 Ю 8-11
{16}
н/о н/о +13.4 +10.0 80 +11 +11 1007.3 1004.7
13 13.06 ЮВ 8-12
{14}
н/о н/о +13.5 +10.3 81 +11 +11 1007.8 1005.1
14 13.06 Ю 8-13
{15}
н/о н/о +14.8 +10.4 75 +13 +13 1007.9 1005.2
15 13.06 ЮВ 9-12
{13}
н/о н/о +15.0 +9.6 70 +13 +13 1008.4 1005.7
16 13.06 ЮВ 7-12
{12}
н/о н/о +14.3 +9.7 74 +12 +12 1008.3 1005.6
17 13.06 ЮВ 8-11
{12}
н/о н/о +14.5 +9.9 74 +12 +12 1008.5 1005.9
18 13.06 ЮВ 7-11
{15}
н/о н/о +13.7 +10.7 82 +11 +11 1008.8 1006.1 +11.5 +15.2
19 13.06 Ю 7-11
{12}
н/о н/о +13.3 +10.8 85 +11 +11 1009.5 1006.8
20 13.06 ЮВ 6-10
{12}
н/о н/о +13.4 +10.6 83 +11 +11 1010.1 1007.4
21 13.06 ЮВ 7-11
{11}
н/о н/о +13.4 +10.2 81 +11 +11 1010.8 1008.1
22 13.06 ЮВ 6-9
{11}
н/о н/о +13.1 +9.7 80 +11 +11 1011.4 1008.8
23 13.06 ЮВ 6-8
{11}
н/о н/о +13.1 +9.6 79 +11 +11 1011.7 1009.1
00 14.06 ЮВ 7-10
{12}
н/о н/о +13.5 +9.0 74 +11 +11 1011.7 1009.0
01 14.06 ЮВ 6-9
{10}
н/о н/о +13.5 +8.6 72 +11 +11 1011.5 1008.8
02 14.06 В 4-7
{9}
н/о н/о +13.4 +8.9 74 +12 +12 1011.7 1009.0
03 14.06 ЮВ 7-9
{9}
н/о н/о +13.8 +8.6 71 +12 +12 1011.8 1009.1
04 14.06 ЮВ 5-9
{9}
н/о н/о +13.6 +8.9 73 +12 +12 1011.8 1009.2
05 14.06 В 5-9
{9}
н/о н/о +14.3 +9.1 71 +13 +13 1012.2 1009.6
06 14.06 В 8-12
{12}
н/о н/о +14.9 +9.7 71 +13 +13 1012.2 1009.5 +12.8 +14.9
07 14.06 В 6-10
{10}
н/о н/о +15.6 +10.2 70 +14 +14 1012.4 1009.7
08 14.06 ЮВ 7-11
{12}
н/о н/о +16.1 +10.9 71 +15 +15 1013.0 1010.3
09 14.06 Ю 7-10
{12}
н/о н/о +14.3 +11.3 82 +12 +12 1013.7 1011.0
10 14.06 Ю 8-11
{11}
н/о н/о +15.8 +11.0 73 +14 +14 1014.1 1011.5
11 14.06 Ю 7-11
{11}
н/о н/о +16.3 +10.8 70 +15 +15 1014.6 1011.9
12 14.06 Ю 6-9
{12}
н/о н/о +15.9 +10.7 71 +15 +15 1014.8 1012.1
13 14.06 Ю 7-9
{10}
н/о н/о +15.7 +10.7 72 +14 +14 1015.3 1012.6
14 14.06 Ю 8-10
{11}
н/о н/о +15.7 +10.5 71 +14 +14 1015.4 1012.7
15 14.06 Ю 9-12
{13}
н/о н/о +14.5 +10.3 76 +12 +12 1015.4 1012.8
16 14.06 Ю 5-10
{11}
н/о н/о +14.6 +10.4 76 +13 +13 1015.7 1013.0
17 14.06 Ю 6-8
{8}
н/о н/о +14.5 +10.1 75 +13 +13 1016.0 1013.3
18 14.06 Ю 6-8
{13}
н/о н/о +14.1 +10.9 81 +12 +12 1016.2 1013.6 +14.1 +17.0
19 14.06 Ю 7-10
{10}
н/о н/о +13.8 +11.0 83 +11 +11 1016.3 1013.6
20 14.06 Ю 9-10
{12}
н/о н/о +13.7 +10.7 82 +11 +11 1016.9 1014.2
21 14.06 Ю 6-10
{10}
н/о н/о +12.6 +10.5 87 +10 +10 1017.4 1014.7
22 14.06 Ю 4-6
{6}
н/о н/о +12.4 +10.5 88 +10 +10 1017.7 1015.0
23 14.06 Ю 3-4
{5}
н/о н/о +12.0 +10.3 89 +10 +10 1017.9 1015.2
00 15.06 В 3-4
{12}
н/о н/о +11.9 +9.6 86 +10 +10 1018.1 1015.4
01 15.06 СВ 3-4
{4}
н/о н/о +11.8 +10.2 90 +10 +10 1017.8 1015.1
02 15.06 СВ 4-4
{5}
н/о н/о +11.7 +10.6 93 +9 +9 1017.5 1014.8
03 15.06 СВ 4-5
{5}
н/о н/о +11.5 +10.4 93 +9 +9 1017.2 1014.5
04 15.06 СВ 5-7
{7}
н/о н/о +12.2 +10.1 87 +10 +10 1016.8 1014.0
05 15.06 СВ 5-6
{7}
н/о н/о +12.6 +10.0 84 +10 +10 1016.9 1014.2
06 15.06 СВ 5-6
{7}
н/о н/о +13.3 +10.3 82 +11 +11 1016.7 1014.0 +11.4 +14.3
07 15.06 СВ 4-5
{5}
н/о н/о +14.3 +10.7 79 +13 +13 1016.7 1014.0
08 15.06 СВ 4-6
{6}
н/о н/о +15.6 +11.4 76 +15 +15 1016.4 1013.7
09 15.06 СВ 4-6
{6}
н/о н/о +16.1 +11.7 75 +15 +15 1016.1 1013.4
10 15.06 СВ 4-5
{6}
н/о н/о +16.4 +11.8 74 +16 +16 1015.3 1012.7
11 15.06 С 5-6
{7}
н/о н/о +19.3 +11.4 60 +20 +20 1014.7 1012.1
12 15.06 С 5-6
{7}
н/о н/о +19.1 +11.9 63 +20 +20 1014.1 1011.4
13 15.06 СЗ 5-6
{6}
н/о н/о +17.5 +11.1 66 +17 +17 1013.9 1011.3
14 15.06 СЗ 6-7
{8}
н/о н/о +15.7 +11.5 76 +14 +14 1013.4 1010.7
15 15.06 СЗ 8-9
{9}
н/о н/о +16.2 +10.7 70 +15 +15 1012.8 1010.2
16 15.06 С 5-9
{9}
н/о н/о +15.2 +10.6 74 +14 +14 1012.5 1009.8
17 15.06 В 1-6
{6}
н/о н/о +15.4 +11.4 77 +16 +16 1012.8 1010.1
18 15.06 СЗ 2-3
{9}
н/о н/о +13.7 +11.2 85 +13 +13 1012.3 1009.6 +13.3 +20.0
19 15.06 СВ 4-5
{6}
н/о н/о +13.7 +11.8 88 +12 +12 1012.1 1009.4
20 15.06 С 4-5
{5}
н/о н/о +13.8 +11.9 88 +12 +12 1011.7 1009.0
21 15.06 СВ 5-6
{7}
н/о н/о +14.1 +12.8 92 +12 +12 1011.8 1009.1
22 15.06 В 3-5
{6}
н/о н/о +14.4 +13.0 91 +13 +13 1011.8 1009.1
23 15.06 СВ 2-3
{3}
н/о н/о +14.1 +12.8 92 +14 +14 1011.1 1008.4
00 16.06 СВ 4-5
{7}
н/о н/о +14.5 +12.5 88 +13 +13 1010.9 1008.3

 

Местоположение метеостанции Квитсёй (Норвегия): широта 59.07 долгота 5.42 высота над уровнем моря 21 м.

В архиве по умолчанию представлена погода в Квитсёй за последнюю неделю. Архивные данные за месяц целиком и за предыдущие месяцы, начиная с января 2011 года, Вы можете получить, выбрав интересующий диапазон дат из раскрывающегося списка и нажав кнопку "Ввод!".


*Определитесь, кто Вы:
робот инопланетянин человек

Внимание! Время в таблицах - всемирное. Для получения местного времени необходимо прибавить поправку, которая равна 1 ч.

Смотрите также архив погоды в соседних городах и на ближайших метеорологических станциях:

Погода в Ставангере (Норвегия) (22 км)
Погода в Ставангер аэропорту (Норвегия) (25 км)
Погода в Аэропорту Haugesund (Норвегия) (34 км)
Погода в Фистере (Норвегия) (37 км)
Погода в Сархейме (Норвегия) (37 км)
Погода на Лярватне (Норвегия) (40 км)
Погода на Маяке Utsira (Норвегия) (41 км)
Погода в Роваере (Норвегия) (45 км)
Погода на Маяке Obrestad (Норвегия) (47 км)
Погода в Недре Ватс (Норвегия) (50 км)

Пояснения к столбцам:

Ветер - указаны скорость ветра в м/с - средняя за 10 мин, порывы в срок и между сроками (в фигурных скобках) и направление, откуда дует ветер: С - северный, СВ - северо-восточный, В - восточный, ЮВ - юго-восточный, Ю - южный, ЮЗ - юго-западный, З - западный, СЗ - северо-западный.
Видимость - горизонтальная дальность видимости в метрах или километрах. При видимости от 1 до 10 км при отсутствии осадков обычно наблюдается дымка, при ухудшении видимости до 1 км и менее - туман. В сухую погоду видимость может ухудшаться дымом, пылью или мглою.
Явления - указаны атмосферные явления, наблюдавшиеся в срок или в последний час перед сроком; фигурными скобками обозначены явления, наблюдавшиеся между сроками (за 1-3 часа до срока); квадратными скобками обозначены град или гололедные отложения с указанием их диаметра в мм.
Облачность - указаны через наклонную черту общая и нижняя облачность в баллах и высота нижней границы облаков в метрах; квадратными скобками обозначены формы облаков: Ci - перистые, Cs - перисто-слоистые, Cc - перисто-кучевые, Ac - высококучевые, As - высокослоистые, Sc - слоисто-кучевые, Ns - слоисто-дождевые, Cu - кучевые, Cb - кучево-дождевые. Подробнее классификацию облаков см. в Атласе облаков (PDF).
T - Температура воздуха - температура, измеренная на высоте 2 м над землей.
Td - Температура точки росы - температура, при понижении до которой содержащийся в воздухе водяной пар достигнет насыщения.
f - Относительная влажность воздуха - влажноcть воздуха, измеренная на высоте 2 м над землей.
Te - Эффективная температура - температура, которую ощущает одетый по сезону человек в тени. Характеристика душности погоды. При расчете учитывается влияние влажности воздуха и скорости ветра на теплоощущения человека.
Tes - Эффективная температура на солнце - температура, которую ощущает человек, с поправкой на солнечный нагрев. Характеристика знойности погоды. Зависит от высоты солнца над горизонтом, облачности и скорости ветра. Ночью, в пасмурную погоду, а также при ветре 12 м/с и более поправка равна нулю.
P - Атмосферное давление - приведенное к уровню моря атмосферное давление.
Po - Атмосферное давление - измеренное на уровне метеостанции атмосферное давление.
Tmin - Минимальная температура - минимум температуры воздуха на высоте 2 м над землей.
Tmax - Максимальная температура - максимум температуры воздуха на высоте 2 м над землей.
R - Количество осадков - Количество выпавших осадков за период времени, мм. При наведении курсора мыши на число - период времени, за который выпало указанное количество осадков.
R24 - Количество осадков - Количество выпавших осадков за 24 часа, мм.
S - Снежный покров - Высота снежного покрова, см. При наведении курсора мыши на число - состояние снежного покрова и степень покрытия местности в баллах.